This is the latest recevied weather packets stored in our database for station/object ON1TG-13. If no packets are shown the sender has not sent any weather packets the latest 1 day(s).
| Time | Temp. | Humidity | Pressure | Rain* | Wind** | Luminosity | Snow |
|---|---|---|---|---|---|---|---|
| 1777966287 | 20.56° C | 21% | - | - | 4.92 m/s, 19° | - | - |
| 1777965381 | 20° C | 21% | - | - | 6.71 m/s, 23° | - | - |
| 1777964473 | 20° C | 21% | - | - | 4.92 m/s, 11° | - | - |
| 1777963565 | 19.44° C | 21% | - | - | 5.81 m/s, 10° | - | - |
| 1777962658 | 18.89° C | 21% | - | - | 5.81 m/s, 15° | - | - |
| 1777961751 | 20° C | 21% | - | - | 4.92 m/s, 10° | - | - |
| 1777960844 | 18.33° C | 21% | - | - | 5.36 m/s, 4° | - | - |
| 1777959936 | 19.44° C | 21% | - | - | 5.36 m/s, 13° | - | - |
| 1777959030 | 18.89° C | 21% | - | - | 4.47 m/s, 11° | - | - |
| 1777958122 | 18.89° C | 21% | - | - | 4.47 m/s, 5° | - | - |
| 1777957212 | 18.33° C | 21% | - | - | 4.47 m/s, 359° | - | - |
| 1777956302 | 18.89° C | 21% | - | - | 4.47 m/s, 15° | - | - |
| 1777955384 | 18.89° C | 21% | - | - | 4.02 m/s, 15° | - | - |
| 1777954469 | 19.44° C | 21% | - | - | 3.58 m/s, 18° | - | - |
| 1777953554 | 18.89° C | 21% | - | - | 3.58 m/s, 6° | - | - |
| 1777951728 | 18.33° C | 21% | - | - | 4.47 m/s, 11° | - | - |
| 1777950812 | 18.33° C | 21% | - | - | 4.92 m/s, 19° | - | - |
| 1777949899 | 18.89° C | 21% | - | - | 4.47 m/s, 25° | - | - |
| 1777948988 | 18.89° C | 21% | - | - | 4.47 m/s, 15° | - | - |
| 1777948077 | 18.89° C | 21% | - | - | 4.92 m/s, 5° | - | - |
| 1777947169 | 18.89° C | 21% | - | - | 4.02 m/s, 11° | - | - |
* Rain since midnight (hover to see other rain measurements)
** Current wind speed in m/s (hover to see current wind gust speed)